Location: Newark
(43.0000°N, 1.6781°W)
Time: 01:59:35
(UTC+00:00)

Vanguard 2 Rocket - Visible Passes

Search period start: 21 April 2021 00:00
Search period end: 01 May 2021 00:00
Orbit: 553 x 3326 km, 32.9° (Epoch: 20 April)

Date Brightness Start Highest point End Pass type
(mag) Time Alt. Az. Time Alt. Az. Time Alt. Az.
21 Apr 10.2 20:30:35 10° W 20:39:34 17° SW 20:46:44 10° SSW visible
22 Apr 10.1 19:25:53 10° W 19:39:38 26° SW 19:49:53 10° S visible
23 Apr 10.5 20:50:08 10° WSW 20:51:54 10° SW 20:53:36 10° SW visible
24 Apr 10.4 19:41:09 10° W 19:52:04 19° SW 20:00:56 10° S visible
26 Apr 10.7 19:59:00 10° WSW 20:04:23 12° SW 20:09:17 10° SW visible
